Time,TemperatureF,DewpointF,PressureIn,WindDirection,WindDirectionDegrees,WindSpeedMPH,WindSpeedGustMPH,Humidity,HourlyPrecipIn,Conditions,Clouds,dailyrainin,SoftwareType,DateUTC
2013-01-11 00:11:00,75.6,66.7,30.21,SSE,157,5.6,7.8,68,0.00,,,-99.99,Homeseer,2013-01-11 05:11:00,
2013-01-11 00:21:00,75.4,66.2,30.21,ESE,112,7.2,7.2,67,0.00,,,-99.99,Homeseer,2013-01-11 05:21:00,
2013-01-11 00:31:00,75.6,65.4,30.21,South,180,9.0,9.0,64,0.00,,,-99.99,Homeseer,2013-01-11 05:31:00,
2013-01-11 00:41:00,75.6,65.7,30.21,SE,135,6.5,9.0,65,0.00,,,-99.99,Homeseer,2013-01-11 05:41:00,
2013-01-11 00:51:00,75.7,66.5,30.21,ESE,112,6.0,6.5,67,0.00,,,-99.99,Homeseer,2013-01-11 05:51:00,
2013-01-11 01:01:00,75.6,65.0,30.21,ESE,112,5.6,8.1,63,0.00,,,-99.99,Homeseer,2013-01-11 06:01:00,
2013-01-11 01:11:00,75.4,65.5,30.21,SSE,157,4.9,10.7,65,0.00,,,-99.99,Homeseer,2013-01-11 06:11:00,
2013-01-11 01:21:00,75.2,65.3,30.21,SSE,157,6.9,6.9,65,0.00,,,-99.99,Homeseer,2013-01-11 06:21:00,
2013-01-11 01:31:00,75.2,65.3,30.21,SSE,157,6.7,10.1,65,0.00,,,-99.99,Homeseer,2013-01-11 06:31:00,
2013-01-11 01:41:00,75.2,65.0,30.21,SSE,157,4.3,5.4,64,0.00,,,-99.99,Homeseer,2013-01-11 06:41:00,
2013-01-11 01:51:00,75.2,65.0,30.21,South,180,5.8,5.8,64,0.00,,,-99.99,Homeseer,2013-01-11 06:51:00,
2013-01-11 02:01:00,75.0,65.5,30.18,SSE,157,5.8,5.8,66,0.00,,,-99.99,Homeseer,2013-01-11 07:01:00,
2013-01-11 02:11:00,75.0,65.5,30.18,SSE,157,6.3,6.3,66,0.00,,,-99.99,Homeseer,2013-01-11 07:11:00,
2013-01-11 02:21:00,75.0,65.5,30.18,ESE,112,4.9,7.4,66,0.00,,,-99.99,Homeseer,2013-01-11 07:21:00,
2013-01-11 02:31:00,75.0,65.1,30.18,ESE,112,2.2,2.7,65,0.00,,,-99.99,Homeseer,2013-01-11 07:31:00,
2013-01-11 02:41:00,75.2,66.7,30.18,North,0,6.3,10.1,69,0.00,,,-99.99,Homeseer,2013-01-11 07:41:00,
2013-01-11 02:51:00,75.2,66.0,30.18,ESE,112,7.2,7.2,67,0.00,,,-99.99,Homeseer,2013-01-11 07:51:00,
2013-01-11 03:01:00,75.2,66.3,30.18,SE,135,3.6,13.0,68,0.00,,,-99.99,Homeseer,2013-01-11 08:01:00,
2013-01-11 03:11:00,75.0,67.7,30.18,ESE,112,4.3,8.7,73,0.00,,,-99.99,Homeseer,2013-01-11 08:11:00,
2013-01-11 03:21:00,75.0,68.3,30.15,SSE,157,6.5,6.5,75,0.00,,,-99.99,Homeseer,2013-01-11 08:21:00,
2013-01-11 03:31:00,74.8,67.5,30.15,North,0,5.4,9.2,73,0.00,,,-99.99,Homeseer,2013-01-11 08:31:00,
2013-01-11 03:41:00,74.8,67.5,30.15,South,180,4.0,4.0,73,0.00,,,-99.99,Homeseer,2013-01-11 08:41:00,
2013-01-11 03:51:00,74.8,67.9,30.15,SSE,157,6.7,6.7,74,0.00,,,-99.99,Homeseer,2013-01-11 08:51:00,
2013-01-11 04:01:00,74.8,68.2,30.15,ESE,112,4.5,4.5,75,0.00,,,-99.99,Homeseer,2013-01-11 09:01:00,
2013-01-11 04:11:00,74.8,68.2,30.15,South,180,5.8,5.8,75,0.00,,,-99.99,Homeseer,2013-01-11 09:11:00,
2013-01-11 04:21:00,74.8,68.5,30.12,SSE,157,4.5,9.4,76,0.00,,,-99.99,Homeseer,2013-01-11 09:21:00,
2013-01-11 04:31:00,74.7,68.7,30.12,SE,135,4.0,8.1,77,0.00,,,-99.99,Homeseer,2013-01-11 09:31:00,
2013-01-11 04:41:00,74.8,69.6,30.12,North,0,3.4,4.0,80,0.00,,,-99.99,Homeseer,2013-01-11 09:41:00,
2013-01-11 04:51:00,74.7,69.5,30.12,SSE,157,3.4,6.5,80,0.00,,,-99.99,Homeseer,2013-01-11 09:51:00,
2013-01-11 05:01:00,74.7,69.2,30.12,SSE,157,3.4,6.0,79,0.00,,,-99.99,Homeseer,2013-01-11 10:01:00,
2013-01-11 05:11:00,74.5,69.0,30.12,ESE,112,5.8,5.8,79,0.00,,,-99.99,Homeseer,2013-01-11 10:11:00,
2013-01-11 05:21:00,74.5,68.5,30.12,North,0,4.3,4.9,77,0.00,,,-99.99,Homeseer,2013-01-11 10:21:00,
2013-01-11 05:31:00,74.3,68.3,30.12,SSE,157,4.5,4.5,77,0.00,,,-99.99,Homeseer,2013-01-11 10:31:00,
2013-01-11 05:41:00,74.1,68.1,30.12,South,180,3.6,3.6,77,0.00,,,-99.99,Homeseer,2013-01-11 10:41:00,
2013-01-11 05:51:00,73.9,68.2,30.12,ESE,112,4.7,4.9,78,0.00,,,-99.99,Homeseer,2013-01-11 10:51:00,
2013-01-11 06:01:00,73.9,68.2,30.12,South,180,7.8,7.8,78,0.00,,,-99.99,Homeseer,2013-01-11 11:01:00,
2013-01-11 06:11:00,73.9,67.9,30.12,SSE,157,4.9,4.9,77,0.00,,,-99.99,Homeseer,2013-01-11 11:11:00,
2013-01-11 06:21:00,74.1,67.8,30.12,North,0,6.5,6.5,76,0.00,,,-99.99,Homeseer,2013-01-11 11:21:00,
2013-01-11 06:31:00,74.1,66.6,30.15,East,90,5.8,8.1,72,0.00,,,-99.99,Homeseer,2013-01-11 11:31:00,
2013-01-11 06:41:00,74.1,66.6,30.15,SSE,157,5.8,5.8,72,0.00,,,-99.99,Homeseer,2013-01-11 11:41:00,
2013-01-11 06:51:00,74.1,66.9,30.15,SSE,157,5.6,5.6,73,0.00,,,-99.99,Homeseer,2013-01-11 11:51:00,
2013-01-11 07:01:00,74.1,66.9,30.15,SSE,157,4.3,7.2,73,0.00,,,-99.99,Homeseer,2013-01-11 12:01:00,
2013-01-11 07:11:00,74.1,66.6,30.15,ESE,112,6.0,6.3,72,0.00,,,-99.99,Homeseer,2013-01-11 12:11:00,
2013-01-11 07:21:00,74.3,67.1,30.15,North,0,2.9,7.4,73,0.00,,,-99.99,Homeseer,2013-01-11 12:21:00,
2013-01-11 07:31:00,74.5,66.6,30.15,ESE,112,5.8,8.7,71,0.00,,,-99.99,Homeseer,2013-01-11 12:31:00,
2013-01-11 07:41:00,74.5,66.9,30.15,South,180,3.6,3.6,72,0.00,,,-99.99,Homeseer,2013-01-11 12:41:00,
2013-01-11 07:51:00,74.5,66.9,30.15,SSE,157,4.0,4.0,72,0.00,,,-99.99,Homeseer,2013-01-11 12:51:00,
2013-01-11 08:01:00,74.7,66.8,30.15,South,180,4.0,4.0,71,0.00,,,-99.99,Homeseer,2013-01-11 13:01:00,
2013-01-11 08:11:00,75.0,67.4,30.15,SSE,157,3.1,3.4,72,0.00,,,-99.99,Homeseer,2013-01-11 13:11:00,
2013-01-11 08:21:00,75.0,66.8,30.15,SSE,157,4.0,4.0,70,0.00,,,-99.99,Homeseer,2013-01-11 13:21:00,
2013-01-11 08:31:00,75.4,66.5,30.15,SE,135,5.8,7.6,68,0.00,,,-99.99,Homeseer,2013-01-11 13:31:00,
2013-01-11 08:41:00,75.6,67.0,30.15,North,0,6.0,8.7,69,0.00,,,-99.99,Homeseer,2013-01-11 13:41:00,
2013-01-11 08:51:00,76.1,66.8,30.15,North,0,3.4,4.9,67,0.00,,,-99.99,Homeseer,2013-01-11 13:51:00,
2013-01-11 09:01:00,75.9,67.0,30.18,South,180,4.0,4.0,68,0.00,,,-99.99,Homeseer,2013-01-11 14:01:00,
2013-01-11 09:11:00,76.5,67.2,30.18,SE,135,5.6,6.7,67,0.00,,,-99.99,Homeseer,2013-01-11 14:11:00,
2013-01-11 09:21:00,76.6,67.7,30.18,ESE,112,4.7,4.7,68,0.00,,,-99.99,Homeseer,2013-01-11 14:21:00,
2013-01-11 09:31:00,76.6,67.0,30.18,East,90,6.9,6.9,66,0.00,,,-99.99,Homeseer,2013-01-11 14:31:00,
2013-01-11 09:41:00,77.0,67.0,30.18,SSE,157,3.8,3.8,65,0.00,,,-99.99,Homeseer,2013-01-11 14:41:00,
2013-01-11 09:51:00,77.4,67.4,30.18,South,180,3.4,3.4,65,0.00,,,-99.99,Homeseer,2013-01-11 14:51:00,
2013-01-11 10:01:00,77.0,67.4,30.18,South,180,4.5,4.5,66,0.00,,,-99.99,Homeseer,2013-01-11 15:01:00,
2013-01-11 10:11:00,76.6,67.0,30.18,North,0,4.7,4.7,66,0.00,,,-99.99,Homeseer,2013-01-11 15:11:00,
2013-01-11 10:21:00,76.6,67.3,30.18,SSE,157,3.6,4.9,67,0.00,,,-99.99,Homeseer,2013-01-11 15:21:00,
2013-01-11 10:31:00,76.6,67.0,30.18,SSE,157,4.5,4.5,66,0.00,,,-99.99,Homeseer,2013-01-11 15:31:00,
2013-01-11 10:41:00,76.3,67.0,30.18,South,180,4.0,4.0,67,0.00,,,-99.99,Homeseer,2013-01-11 15:41:00,
2013-01-11 10:51:00,76.6,68.0,30.18,East,90,7.8,8.1,69,0.00,,,-99.99,Homeseer,2013-01-11 15:51:00,
2013-01-11 11:01:00,77.2,67.9,30.18,SE,135,6.0,6.3,67,0.00,,,-99.99,Homeseer,2013-01-11 16:01:00,
2013-01-11 11:11:00,77.4,67.7,30.18,North,0,7.6,7.6,66,0.00,,,-99.99,Homeseer,2013-01-11 16:11:00,
2013-01-11 11:21:00,77.4,68.1,30.18,SSE,157,7.4,7.4,67,0.00,,,-99.99,Homeseer,2013-01-11 16:21:00,
2013-01-11 11:31:00,78.1,68.4,30.18,SSE,157,8.1,8.1,66,0.00,,,-99.99,Homeseer,2013-01-11 16:31:00,
2013-01-11 11:41:00,78.1,68.0,30.18,SSE,157,9.2,9.2,65,0.00,,,-99.99,Homeseer,2013-01-11 16:41:00,
2013-01-11 11:51:00,78.4,67.6,30.18,SE,135,7.6,7.6,63,0.00,,,-99.99,Homeseer,2013-01-11 16:51:00,
2013-01-11 12:01:00,78.4,67.3,30.15,South,180,8.1,8.5,62,0.00,,,-99.99,Homeseer,2013-01-11 17:01:00,
2013-01-11 12:11:00,78.6,66.7,30.15,SSE,157,7.2,10.5,60,0.00,,,-99.99,Homeseer,2013-01-11 17:11:00,
2013-01-11 12:21:00,78.8,65.8,30.15,SSE,157,6.9,7.6,57,0.00,,,-99.99,Homeseer,2013-01-11 17:21:00,
2013-01-11 12:31:00,78.8,65.8,30.15,North,0,6.3,6.3,57,0.00,,,-99.99,Homeseer,2013-01-11 17:31:00,
2013-01-11 12:41:00,78.8,65.4,30.15,SSE,157,6.3,6.3,56,0.00,,,-99.99,Homeseer,2013-01-11 17:41:00,
2013-01-11 12:51:00,78.6,66.0,30.15,South,180,6.7,6.9,58,0.00,,,-99.99,Homeseer,2013-01-11 17:51:00,
2013-01-11 13:01:00,78.8,65.4,30.15,SE,135,6.5,6.5,56,0.00,,,-99.99,Homeseer,2013-01-11 18:01:00,
2013-01-11 13:11:00,79.2,64.9,30.15,ESE,112,7.2,9.8,54,0.00,,,-99.99,Homeseer,2013-01-11 18:11:00,
2013-01-11 13:21:00,79.2,65.3,30.15,SE,135,6.0,8.1,55,0.00,,,-99.99,Homeseer,2013-01-11 18:21:00,
2013-01-11 13:31:00,79.2,65.7,30.15,SSE,157,4.9,7.4,56,0.00,,,-99.99,Homeseer,2013-01-11 18:31:00,
2013-01-11 13:41:00,79.5,64.8,30.15,East,90,6.5,6.5,53,0.00,,,-99.99,Homeseer,2013-01-11 18:41:00,
2013-01-11 13:51:00,79.5,65.6,30.12,ESE,112,4.5,5.8,55,0.00,,,-99.99,Homeseer,2013-01-11 18:51:00,
2013-01-11 14:01:00,79.2,65.3,30.12,SE,135,5.8,5.8,55,0.00,,,-99.99,Homeseer,2013-01-11 19:01:00,
2013-01-11 14:11:00,79.7,65.4,30.12,ESE,112,4.9,4.9,54,0.00,,,-99.99,Homeseer,2013-01-11 19:11:00,
2013-01-11 14:21:00,79.2,66.5,30.12,SE,135,8.5,11.0,58,0.00,,,-99.99,Homeseer,2013-01-11 19:21:00,
2013-01-11 14:31:00,79.0,67.5,30.12,ESE,112,6.7,10.5,61,0.00,,,-99.99,Homeseer,2013-01-11 19:31:00,
2013-01-11 14:41:00,78.4,66.9,30.12,ESE,112,5.4,10.7,61,0.00,,,-99.99,Homeseer,2013-01-11 19:41:00,
2013-01-11 14:51:00,78.4,66.5,30.12,SE,135,4.5,5.8,60,0.00,,,-99.99,Homeseer,2013-01-11 19:51:00,
2013-01-11 15:01:00,77.9,66.4,30.12,ESE,112,9.2,9.2,61,0.00,,,-99.99,Homeseer,2013-01-11 20:01:00,
2013-01-11 15:11:00,78.1,67.0,30.12,East,90,4.5,4.5,62,0.00,,,-99.99,Homeseer,2013-01-11 20:11:00,
2013-01-11 15:21:00,78.1,67.0,30.12,ESE,112,6.3,6.3,62,0.00,,,-99.99,Homeseer,2013-01-11 20:21:00,
2013-01-11 15:31:00,78.3,66.4,30.12,South,180,7.6,7.6,60,0.00,,,-99.99,Homeseer,2013-01-11 20:31:00,
2013-01-11 15:41:00,77.9,66.4,30.12,SE,135,6.9,8.5,61,0.00,,,-99.99,Homeseer,2013-01-11 20:41:00,
2013-01-11 15:51:00,77.7,65.9,30.12,ESE,112,6.9,6.9,60,0.00,,,-99.99,Homeseer,2013-01-11 20:51:00,
2013-01-11 16:01:00,77.4,66.0,30.12,SE,135,6.7,8.7,61,0.00,,,-99.99,Homeseer,2013-01-11 21:01:00,
2013-01-11 16:11:00,77.4,66.3,30.12,ESE,112,7.6,7.6,62,0.00,,,-99.99,Homeseer,2013-01-11 21:11:00,
2013-01-11 16:21:00,77.2,66.1,30.12,SE,135,5.8,6.5,62,0.00,,,-99.99,Homeseer,2013-01-11 21:21:00,
2013-01-11 16:31:00,76.8,66.1,30.12,SE,135,5.6,6.3,63,0.00,,,-99.99,Homeseer,2013-01-11 21:31:00,
2013-01-11 16:41:00,76.6,65.9,30.12,ESE,112,6.0,8.5,63,0.00,,,-99.99,Homeseer,2013-01-11 21:41:00,
2013-01-11 16:51:00,76.5,66.2,30.12,SSE,157,7.6,8.7,64,0.00,,,-99.99,Homeseer,2013-01-11 21:51:00,
2013-01-11 17:01:00,76.3,66.0,30.12,East,90,5.6,6.0,64,0.00,,,-99.99,Homeseer,2013-01-11 22:01:00,
2013-01-11 17:11:00,76.1,65.8,30.12,SSE,157,4.7,4.7,64,0.00,,,-99.99,Homeseer,2013-01-11 22:11:00,
2013-01-11 17:21:00,75.9,66.0,30.12,ESE,112,7.4,7.4,65,0.00,,,-99.99,Homeseer,2013-01-11 22:21:00,
2013-01-11 17:31:00,75.7,65.5,30.12,SE,135,6.9,6.9,64,0.00,,,-99.99,Homeseer,2013-01-11 22:31:00,
2013-01-11 17:41:00,75.6,65.4,30.12,SE,135,4.7,4.7,64,0.00,,,-99.99,Homeseer,2013-01-11 22:41:00,
2013-01-11 17:51:00,75.6,65.4,30.12,SE,135,4.5,8.1,64,0.00,,,-99.99,Homeseer,2013-01-11 22:51:00,
2013-01-11 18:01:00,75.4,65.5,30.09,SSE,157,6.7,7.8,65,0.00,,,-99.99,Homeseer,2013-01-11 23:01:00,
2013-01-11 18:11:00,75.2,65.0,30.09,SE,135,3.8,8.7,64,0.00,,,-99.99,Homeseer,2013-01-11 23:11:00,
2013-01-11 18:21:00,75.2,65.3,30.09,ESE,112,5.6,5.6,65,0.00,,,-99.99,Homeseer,2013-01-11 23:21:00,
2013-01-11 18:31:00,75.2,65.3,30.12,SE,135,7.2,7.2,65,0.00,,,-99.99,Homeseer,2013-01-11 23:31:00,
2013-01-11 18:41:00,75.2,65.7,30.12,ESE,112,5.4,8.5,66,0.00,,,-99.99,Homeseer,2013-01-11 23:41:00,
2013-01-11 18:51:00,75.2,65.3,30.12,SSE,157,5.6,8.1,65,0.00,,,-99.99,Homeseer,2013-01-11 23:51:00,
2013-01-11 19:01:00,75.0,64.4,30.12,SE,135,6.7,8.1,63,0.00,,,-99.99,Homeseer,2013-01-12 00:01:00,
2013-01-11 19:11:00,75.2,65.0,30.12,SE,135,6.5,6.5,64,0.00,,,-99.99,Homeseer,2013-01-12 00:11:00,
2013-01-11 19:21:00,75.2,64.3,30.12,SSE,157,6.3,6.3,62,0.00,,,-99.99,Homeseer,2013-01-12 00:21:00,
2013-01-11 19:31:00,75.4,64.8,30.12,North,0,4.3,7.4,63,0.00,,,-99.99,Homeseer,2013-01-12 00:31:00,
2013-01-11 19:41:00,75.4,64.8,30.12,ESE,112,5.8,5.8,63,0.00,,,-99.99,Homeseer,2013-01-12 00:41:00,
2013-01-11 19:51:00,75.4,65.5,30.12,SSE,157,7.2,7.2,65,0.00,,,-99.99,Homeseer,2013-01-12 00:51:00,
2013-01-11 20:01:00,75.4,65.2,30.12,SE,135,6.5,6.5,64,0.00,,,-99.99,Homeseer,2013-01-12 01:01:00,
2013-01-11 20:11:00,75.6,65.7,30.12,ESE,112,4.5,4.5,65,0.00,,,-99.99,Homeseer,2013-01-12 01:11:00,
2013-01-11 20:21:00,75.6,65.7,30.12,SE,135,6.3,10.3,65,0.00,,,-99.99,Homeseer,2013-01-12 01:21:00,
2013-01-11 20:31:00,75.4,65.5,30.12,SSE,157,7.6,7.6,65,0.00,,,-99.99,Homeseer,2013-01-12 01:31:00,
2013-01-11 20:41:00,75.4,65.5,30.12,SE,135,7.8,10.1,65,0.00,,,-99.99,Homeseer,2013-01-12 01:41:00,
2013-01-11 20:51:00,75.4,65.5,30.12,South,180,6.0,6.0,65,0.00,,,-99.99,Homeseer,2013-01-12 01:51:00,
2013-01-11 21:01:00,75.4,66.2,30.12,ESE,112,5.8,6.5,67,0.00,,,-99.99,Homeseer,2013-01-12 02:01:00,
2013-01-11 21:11:00,75.4,65.5,30.12,SSE,157,6.5,9.8,65,0.00,,,-99.99,Homeseer,2013-01-12 02:11:00,
2013-01-11 21:21:00,75.6,66.0,30.12,SE,135,6.9,6.9,66,0.00,,,-99.99,Homeseer,2013-01-12 02:21:00,
2013-01-11 21:31:00,75.6,66.0,30.12,ESE,112,6.0,8.1,66,0.00,,,-99.99,Homeseer,2013-01-12 02:31:00,
2013-01-11 21:41:00,75.4,66.2,30.12,ESE,112,6.0,6.0,67,0.00,,,-99.99,Homeseer,2013-01-12 02:41:00,
2013-01-11 21:51:00,75.4,66.2,30.12,SE,135,6.3,7.8,67,0.00,,,-99.99,Homeseer,2013-01-12 02:51:00,
2013-01-11 22:01:00,75.4,66.5,30.12,SE,135,6.3,6.3,68,0.00,,,-99.99,Homeseer,2013-01-12 03:01:00,
2013-01-11 22:11:00,75.4,66.5,30.12,ESE,112,7.4,7.4,68,0.00,,,-99.99,Homeseer,2013-01-12 03:11:00,
2013-01-11 22:21:00,75.4,67.2,30.12,North,0,7.6,7.6,70,0.00,,,-99.99,Homeseer,2013-01-12 03:21:00,
2013-01-11 22:31:00,75.4,67.5,30.12,ESE,112,7.2,7.2,71,0.00,,,-99.99,Homeseer,2013-01-12 03:31:00,
2013-01-11 22:41:00,75.0,68.9,30.12,SE,135,7.6,7.6,77,0.00,,,-99.99,Homeseer,2013-01-12 03:41:00,
2013-01-11 22:51:00,75.0,69.5,30.12,ESE,112,6.7,6.7,79,0.00,,,-99.99,Homeseer,2013-01-12 03:51:00,
2013-01-11 23:01:00,75.0,68.9,30.12,SE,135,5.8,7.6,77,0.00,,,-99.99,Homeseer,2013-01-12 04:01:00,
2013-01-11 23:11:00,74.7,69.8,30.12,ESE,112,7.4,7.4,81,0.00,,,-99.99,Homeseer,2013-01-12 04:11:00,
2013-01-11 23:21:00,74.5,69.3,30.12,SE,135,6.3,6.5,80,0.00,,,-99.99,Homeseer,2013-01-12 04:21:00,
2013-01-11 23:31:00,74.8,69.3,30.12,SSE,157,9.4,9.6,79,0.00,,,-99.99,Homeseer,2013-01-12 04:31:00,
2013-01-11 23:41:00,75.2,69.4,30.12,SE,135,8.5,9.6,78,0.00,,,-99.99,Homeseer,2013-01-12 04:41:00,
2013-01-11 23:51:00,75.2,69.4,30.12,SE,135,9.4,9.4,78,0.00,,,-99.99,Homeseer,2013-01-12 04:51:00,